Location: Campestrin
(46.4667°N, 11.7167°E)
Time: 10:22:02
(UTC+00:00)

CZ-2C R/B - Pass Details

Date: 18 April 2021
Orbit: 639 x 705 km, 98.3° (Epoch: 07 May)

Event Time Altitude Azimuth Distance (km) Brightness Sun altitude
Rises 19:41:53 0° 18° (NNE) 2,968 7.3 -15.7°
Reaches altitude 10° 19:44:11 10° 24° (NNE) 2,048 6.4 -16.0°
Maximum altitude 19:48:30 48° 100° (E) 834 3.8 -16.6°
Enters shadow 19:50:39 26° 161° (SSE) 1,249 4.6 -16.9°
